TimeHST,TemperatureF,Dew PointF,Humidity,Sea Level PressureIn,VisibilityMPH,Wind Direction,Wind SpeedMPH,Gust SpeedMPH,PrecipitationIn,Events,Conditions,WindDirDegrees,DateUTC
12:04 AM,77.0,69.8,78,30.01,10.0,WSW,5.8,-,N/A,,Scattered Clouds,250,2012-10-18 10:04:00
12:53 AM,73.6,69.1,86,29.99,10.0,WSW,8.1,-,N/A,,Mostly Cloudy,240,2012-10-18 10:53:00
1:53 AM,71.8,66.9,85,29.99,10.0,West,6.9,-,N/A,,Clear,280,2012-10-18 11:53:00
2:53 AM,70.2,66.9,89,29.98,10.0,West,8.1,-,N/A,,Partly Cloudy,280,2012-10-18 12:53:00
3:53 AM,70.2,64.9,83,29.98,10.0,West,8.1,-,N/A,,Clear,270,2012-10-18 13:53:00
4:49 AM,69.8,64.4,83,29.99,10.0,SW,4.6,-,0.00,Rain,Light Rain,230,2012-10-18 14:49:00
4:53 AM,71.8,64.9,79,29.98,10.0,SW,6.9,-,0.00,,Overcast,230,2012-10-18 14:53:00
5:53 AM,71.1,66.0,84,29.99,10.0,Calm,Calm,-,N/A,,Mostly Cloudy,0,2012-10-18 15:53:00
6:53 AM,72.0,66.9,84,30.00,10.0,East,8.1,-,N/A,,Mostly Cloudy,80,2012-10-18 16:53:00
7:22 AM,77.0,69.8,78,30.01,10.0,East,11.5,-,N/A,,Scattered Clouds,80,2012-10-18 17:22:00
7:53 AM,77.0,69.1,76,30.01,10.0,East,12.7,-,N/A,,Mostly Cloudy,80,2012-10-18 17:53:00
8:53 AM,80.1,68.0,67,30.02,10.0,East,12.7,20.7,N/A,,Scattered Clouds,90,2012-10-18 18:53:00
9:53 AM,81.0,68.0,65,30.02,10.0,East,11.5,-,N/A,,Clear,80,2012-10-18 19:53:00
10:53 AM,82.9,66.9,58,30.01,10.0,ENE,11.5,-,N/A,,Scattered Clouds,70,2012-10-18 20:53:00
11:53 AM,81.0,66.9,62,29.99,10.0,East,11.5,-,N/A,,Partly Cloudy,80,2012-10-18 21:53:00
12:53 PM,82.0,69.1,65,29.97,10.0,East,12.7,-,N/A,,Scattered Clouds,80,2012-10-18 22:53:00
1:53 PM,82.0,68.0,62,29.95,10.0,East,10.4,-,N/A,,Partly Cloudy,90,2012-10-18 23:53:00
2:53 PM,81.0,69.1,67,29.93,10.0,East,11.5,-,N/A,,Partly Cloudy,100,2012-10-19 00:53:00
3:53 PM,80.1,69.1,69,29.94,10.0,East,10.4,-,N/A,,Partly Cloudy,80,2012-10-19 01:53:00
4:53 PM,80.1,68.0,67,29.94,10.0,ENE,10.4,-,N/A,,Clear,70,2012-10-19 02:53:00
5:53 PM,78.1,68.0,71,29.96,10.0,ENE,11.5,-,N/A,,Mostly Cloudy,70,2012-10-19 03:53:00
6:53 PM,78.1,69.1,74,29.99,10.0,ENE,12.7,-,N/A,,Overcast,70,2012-10-19 04:53:00
7:53 PM,78.1,70.0,76,30.01,10.0,East,13.8,-,N/A,,Overcast,80,2012-10-19 05:53:00
8:53 PM,77.0,69.1,76,30.03,10.0,East,13.8,-,N/A,,Mostly Cloudy,90,2012-10-19 06:53:00
9:53 PM,77.0,68.0,74,30.04,10.0,East,13.8,-,N/A,,Scattered Clouds,80,2012-10-19 07:53:00
10:53 PM,77.0,66.9,71,30.03,10.0,East,13.8,-,N/A,,Partly Cloudy,80,2012-10-19 08:53:00
11:26 PM,77.0,66.2,69,30.03,10.0,East,12.7,-,N/A,,Mostly Cloudy,80,2012-10-19 09:26:00
11:37 PM,77.0,66.2,69,30.03,10.0,ENE,12.7,-,N/A,,Scattered Clouds,70,2012-10-19 09:37:00
11:53 PM,75.9,68.0,76,30.03,10.0,East,10.4,-,N/A,,Partly Cloudy,80,2012-10-19 09:53:00